Location: Newark
(43.5831°N, 21.3381°E)
Time: 03:22:11
(UTC+00:00)

Envisat - Pass Details

Date: 15 December 2019
Orbit: 764 x 766 km, 98.1° (Epoch: 23 January)

Event Time Altitude Azimuth Distance (km) Brightness Sun altitude
Rises 16:09:28 0° 156° (SSE) 3,220 6.2 -12.3°
Reaches altitude 10° 16:11:47 10° 154° (SSE) 2,298 5.4 -12.7°
Maximum altitude 16:16:47 65° 73° (ENE) 844 2.9 -13.6°
Drops below altitude 10° 16:21:50 10° 353° (N) 2,314 5.4 -14.4°
Sets 16:24:09 0° 350° (N) 3,244 6.2 -14.8°
